Hourly Data Report for January 31, 2012

HALIFAX STANFIELD INT'L A
NOVA SCOTIA

44°52'48.060" N
63°30'00.050" W
145.40 m
8202250
71395
YHZ

Download Data

Hourly Data (January 2012)
Hourly Data Report for January 31, 2012
TIME
LST
Temp Definition
°C
Dew Point Definition
°C
Rel Hum Definition
%
Precip. Amount Definition
mm

Wind Dir Definition
10's deg

Wind Spd Definition
km/h
Visibility Definition
km
Stn Press Definition
kPa
Hmdx Definition


Wind Chill Definition


Weather Definition


00:00 -6.4 -10.3 74   31 32 24.1 99.94   -15 Mainly Clear
01:00 -8.0 -11.6 75   33 30 24.1 100.03   -17 Mainly Clear
02:00 -9.1 -12.3 78   32 20 24.1 100.12   -17 Mainly Clear
03:00 -10.5 -13.5 79   32 11 24.1 100.19   -16 Mainly Clear
04:00 -11.0 -13.5 82   31 17 24.1 100.23   -18 Clear
05:00 -11.0 -13.6 81   30 13 24.1 100.30   -17 Clear
06:00 -11.3 -13.7 82   29 17 24.1 100.31   -19 Clear
07:00 -11.7 -14.4 80   30 15 24.1 100.38   -19 Clear
08:00 -11.7 -14.6 79   30 15 24.1 100.44   -19 Mainly Clear
09:00 -11.1 -14.3 77   31 20 24.1 100.49   -19 Mainly Clear
10:00 -9.9 -13.5 75   28 17 24.1 100.52   -17 Mainly Clear
11:00 -8.7 -12.0 77   31 17 24.1 100.52   -16 Mainly Clear
12:00 -7.9 -11.8 74   29 22 24.1 100.50   -16 Snow Showers
13:00 -7.9 -12.3 71   28 15 24.1 100.47   -14 Mostly Cloudy
14:00 -6.9 -11.9 67   29 15 24.1 100.42   -13 Mostly Cloudy
15:00 -6.7 -12.3 64   28 15 24.1 100.42   -13 Mainly Clear
16:00 -6.2 -11.7 65   28 13 24.1 100.44   -12 Mostly Cloudy
17:00 -7.3 -11.6 71   26 7 24.1 100.47   -11 Mostly Cloudy
18:00 -9.1 -11.5 83   25 4 24.1 100.49   -11 Mostly Cloudy
19:00 -8.8 -10.6 87   18 6 24.1 100.49   -12 Mostly Cloudy
20:00 -9.1 -10.8 87   19 7 24.1 100.48   -13 Mostly Cloudy
21:00 -8.6 -10.6 85   15 6 24.1 100.47   -12 Cloudy
22:00 -8.1 -10.2 85     0 24.1 100.41     Cloudy
23:00 -7.9 -10.3 83   9 6 24.1 100.38   -11 Cloudy

Notes on Data Quality.

Legend

  • E = Estimated
  • M = Missing
  • NA = Not Available*
  • [empty] = Indicates an unobserved value
Date modified: